[[{"header":{"parameterUnit":"m.s-1","parameterCategory":1,"la1":30.2991,"la2":30.254,"lo1":-89.0895,"lo2":-89.0444,"dy":0.0017,"dx":0.0017,"nx":28,"ny":28,"refTime":"2024-05-13T03:00:00:Z","depth":0,"parameterNumber":2,"parameterNumberName":"U-component_of_WINDS"},"data":[0,0,0,0,0,0,0,0,0,0,0,0,0,0,0,0,0,0,0,0,0,0,0,0,0,0,0,0,0,0,0,0,0,0,0,0,0,0,0,0,0,0,0,0,0,0,0,0,0,0,0,0,0,0,0,0,0,0,2.3408,2.3409,0,2.3469,2.347,2.347,2.3444,2.3443,2.3441,2.344,2.3499,2.3501,2.3504,0,0,0,0,0,0,0,0,0,0,0,0,0,2.3266,2.3269,2.3408,2.3409,2.341,2.3469,2.347,2.347,2.3445,2.3443,2.3441,2.3439,2.3498,2.3501,2.3505,0,0,0,0,0,0,0,0,0,0,0,0,0,2.3327,2.3269,2.3408,2.3404,2.3404,2.3469,2.347,2.3471,2.3445,2.3443,2.3441,2.3439,2.3496,2.3501,2.3505,2.3576,0,0,2.3518,2.352,0,0,0,0,0,0,0,0,2.3324,2.3332,2.3404,2.3404,2.3405,2.3447,2.3441,2.3506,2.3446,2.3429,2.344,2.3437,2.3483,2.3488,2.3504,2.3579,2.3581,2.3519,2.3521,2.3523,2.3525,0,0,0,0,0,0,0,2.3319,2.333,2.3432,2.3405,2.3405,2.3398,2.3404,2.3453,2.3467,2.3431,2.3429,2.3437,2.3483,2.35,2.3506,2.3582,2.3519,2.3523,2.3525,2.3527,2.3717,2.372,0,0,0,0,0,0,2.3316,2.3326,2.343,2.3434,2.3358,2.3402,2.3409,2.3435,2.3467,2.347,2.3438,2.3435,2.3494,2.35,2.3507,2.3592,2.3523,2.3527,2.353,2.3715,2.3718,2.372,0,0,0,0,0,0,2.3313,2.3325,2.3428,2.338,2.3392,2.3407,2.3437,2.3438,2.3455,2.3473,2.3475,2.3454,2.3492,2.3501,2.3559,2.3594,2.3529,2.3533,2.3712,2.3716,2.3719,2.3762,0,0,0,0,0,0,2.3309,2.3324,2.3352,2.3381,2.3395,2.348,2.3439,2.3441,2.3463,2.346,2.3488,2.3491,2.3491,2.3553,2.3564,2.3599,2.3537,2.3709,2.3714,2.3718,2.3758,2.3767,2.3775,0,0,0,0,0,2.3304,2.3361,2.3354,2.3366,2.343,2.3482,2.349,2.349,2.3466,2.3494,2.3505,2.349,2.3589,2.3559,2.3571,2.3608,2.3707,2.3712,2.3718,2.3754,2.3765,2.3775,0,0,0,0,0,0,2.3335,2.3365,2.3357,2.3425,2.3451,2.3477,2.3512,2.3502,2.3535,2.353,2.3528,2.3535,2.3595,2.3607,2.3574,2.3678,2.3644,2.3652,2.3668,2.3678,2.3687,2.3682,2.354,0,0,0,0,0,2.335,2.339,2.3414,2.3472,2.3486,2.3497,2.3519,2.3518,2.3544,2.3554,2.357,2.3595,2.3632,2.3656,2.3691,2.376,2.3765,2.3791,2.38,2.3807,2.3813,2.385,2.3862,2.3738,2.3738,2.3738,0,0,2.338,2.3402,2.3427,2.3479,2.3499,2.354,2.3506,2.355,2.358,2.3561,2.3617,2.3629,2.3657,2.3721,2.375,2.3733,2.3849,2.3814,2.3819,2.3822,2.3857,2.3869,2.3879,2.3742,2.3741,2.3741,0,0,2.3458,2.3479,2.3529,2.355,2.3582,2.3589,2.3601,2.3629,2.3637,2.3693,2.3679,2.3715,2.3778,2.3798,2.3817,2.3903,2.389,2.3915,2.3958,2.3995,2.4004,2.4013,2.4043,2.4054,2.3921,2.3922,2.3922,0,2.3491,2.3554,2.3556,2.3602,2.3625,2.3611,2.3661,2.3681,2.3722,2.3737,2.3718,2.3798,2.3816,2.3884,2.3905,2.3921,2.3934,2.3911,2.4003,2.4012,2.402,2.4048,2.406,2.3924,2.3924,2.3924,2.3923,0,2.3594,2.3637,2.3674,2.3716,2.3742,2.3791,2.3799,2.3826,2.3822,2.3831,2.3888,2.391,2.3948,2.3965,2.3961,2.4033,2.4021,2.4003,2.3968,2.4034,2.4061,2.4072,2.3928,2.3927,2.3926,2.3926,0,0,2.369,2.3734,2.3747,2.3766,2.38,2.3833,2.388,2.3919,2.3942,2.3971,2.401,2.4064,2.4048,2.4069,2.4068,2.41,2.4166,2.4077,2.4078,2.4092,2.4245,2.4258,2.4271,2.4158,2.416,2.4162,2.4242,0,2.3769,2.3854,2.3858,2.3934,2.3974,2.3962,2.4003,2.4027,2.4037,2.4071,2.4082,2.412,2.4096,2.4109,2.414,2.4151,2.4196,2.4146,2.4192,2.4194,2.4185,2.4285,2.4298,2.4374,2.4253,2.4255,2.4256,0,2.3873,2.3906,2.3987,2.4016,2.4033,2.407,2.4107,2.414,2.4168,2.4172,2.4197,2.4191,2.4239,2.4204,2.4268,2.4234,2.4253,2.4262,2.4265,2.4268,2.4228,2.429,2.4398,2.4408,2.4273,2.4271,2.427,0,2.3934,2.4,2.4057,2.4073,2.4108,2.4135,2.415,2.4176,2.42,2.4231,2.4246,2.4283,2.4302,2.433,2.4334,2.4308,2.4398,2.4364,2.4402,2.4402,2.4421,2.4419,2.4532,2.4435,2.4435,2.4435,2.4435,0,2.4021,2.4071,2.4085,2.412,2.4175,2.4178,2.4232,2.4246,2.4269,2.4305,2.4297,2.4331,2.4334,2.4369,2.4372,2.4425,2.4434,2.4438,2.4438,2.4438,2.4438,2.445,2.4444,2.4438,2.4437,2.4437,2.4436,0,2.4098,2.411,2.4171,2.42,2.4209,2.4248,2.4272,2.4305,2.4315,2.4361,2.4372,2.4386,2.4427,2.4434,2.4481,2.4483,2.4546,2.4541,2.4537,2.4536,2.4574,2.457,2.4698,2.4714,2.4608,2.4609,2.4609,0,2.4153,2.4191,2.4225,2.425,2.4267,2.4307,2.4331,2.4336,2.4362,2.4397,2.4425,2.4465,2.4497,2.4562,2.4576,2.4612,2.4608,2.465,2.4613,2.4612,2.4607,2.4604,2.4608,2.4657,2.4658,2.4659,2.4659,0,2.4248,2.4252,2.4288,2.4327,2.4357,2.4388,2.4416,2.4436,2.4445,2.4474,2.4517,2.4542,2.4591,2.463,2.4667,2.4681,2.4671,2.4672,2.4682,2.4682,2.4677,2.4679,2.4555,2.4668,2.4667,2.4667,2.4666,2.4666,2.4314,2.4348,2.4377,2.4418,2.4441,2.4468,2.45,2.4515,2.4551,2.4592,2.4593,2.4639,2.4665,2.4713,2.473,2.4766,2.4752,2.4767,2.4771,2.4775,2.4778,2.4673,2.4772,2.4772,2.4772,2.4772,2.4771,0,2.4408,2.4427,2.4464,2.4506,2.4538,2.4528,2.456,2.4587,2.4628,2.4654,2.4687,2.4735,2.4774,2.4791,2.4829,2.4854,2.485,2.4863,2.486,2.4864,2.4788,2.4775,2.4865,2.4865,2.4865,2.4865,2.4865,2.4865,2.446,2.4516,2.4524,2.4591,2.4609,2.4655,2.4674,2.4698,2.472,2.4775,2.4807,2.4819,2.4842,2.4881,2.4916,2.492,2.4933,2.4948,2.495,2.4879,2.4869,2.486,2.4847,2.4951,2.4952,2.5022,2.5023,2.5023]},{"header":{"parameterUnit":"m.s-1","parameterCategory":1,"la1":30.2991,"la2":30.254,"lo1":-89.0895,"lo2":-89.0444,"dy":0.0017,"dx":0.0017,"nx":28,"ny":28,"refTime":"2024-05-13T03:00:00:Z","depth":0,"parameterNumber":3,"parameterNumberName":"V-component_of_WINDS"},"data":[0,0,0,0,0,0,0,0,0,0,0,0,0,0,0,0,0,0,0,0,0,0,0,0,0,0,0,0,0,0,0,0,0,0,0,0,0,0,0,0,0,0,0,0,0,0,0,0,0,0,0,0,0,0,0,0,0,0,4.1538,4.1542,0,4.1915,4.1919,4.1923,4.2047,4.2046,4.2044,4.2043,4.2418,4.2429,4.244,0,0,0,0,0,0,0,0,0,0,0,0,0,4.0912,4.0923,4.1538,4.1543,4.1547,4.1914,4.1919,4.1925,4.2048,4.2046,4.2044,4.2042,4.2414,4.2427,4.2441,0,0,0,0,0,0,0,0,0,0,0,0,0,4.1225,4.0926,4.1537,4.1653,4.1668,4.1913,4.192,4.1926,4.2048,4.2046,4.2043,4.2041,4.2409,4.2426,4.2443,4.2597,0,0,4.2496,4.2503,0,0,0,0,0,0,0,0,4.1207,4.1248,4.1632,4.1646,4.1662,4.1932,4.1836,4.2151,4.2049,4.1903,4.2043,4.204,4.2257,4.2287,4.2363,4.2615,4.2631,4.2497,4.2508,4.2515,4.252,0,0,0,0,0,0,0,4.1185,4.1232,4.1687,4.1637,4.1656,4.1682,4.1724,4.1896,4.2089,4.1916,4.1926,4.1969,4.2265,4.2346,4.2372,4.2637,4.2497,4.2512,4.2523,4.2529,4.3029,4.3032,0,0,0,0,0,0,4.1146,4.1214,4.1675,4.1698,4.1425,4.1695,4.1742,4.1848,4.2087,4.2122,4.1971,4.1974,4.2317,4.2352,4.2386,4.258,4.2515,4.2531,4.2541,4.3026,4.303,4.3033,0,0,0,0,0,0,4.1132,4.1186,4.166,4.1459,4.1521,4.1709,4.1826,4.1856,4.1937,4.2129,4.2163,4.2019,4.2317,4.2362,4.2544,4.2595,4.2539,4.2554,4.3022,4.3027,4.3031,4.297,0,0,0,0,0,0,4.1113,4.118,4.1244,4.146,4.1532,4.1815,4.1829,4.1865,4.1968,4.1975,4.2183,4.2215,4.2318,4.2517,4.2561,4.2617,4.2568,4.3019,4.3025,4.303,4.2968,4.2972,4.2975,0,0,0,0,0,4.1091,4.121,4.1247,4.1302,4.1616,4.1818,4.1859,4.1979,4.1972,4.2035,4.2157,4.2208,4.2582,4.2535,4.2585,4.2647,4.3016,4.3023,4.3029,4.2967,4.2971,4.2975,0,0,0,0,0,0,4.0993,4.1241,4.1284,4.1478,4.1626,4.1839,4.1923,4.198,4.2131,4.213,4.2269,4.2315,4.2485,4.2584,4.2528,4.2806,4.2801,4.2818,4.2736,4.2742,4.2745,4.2717,4.2582,0,0,0,0,0,4.0995,4.1142,4.1349,4.1499,4.1572,4.1734,4.1826,4.1906,4.2064,4.2126,4.2262,4.241,4.256,4.2656,4.2806,4.2982,4.3027,4.3049,4.3052,4.3054,4.3067,4.3164,4.3175,4.3054,4.3054,4.3054,0,0,4.0999,4.1152,4.1236,4.1484,4.1608,4.1753,4.1786,4.1939,4.2046,4.2148,4.2329,4.2433,4.2606,4.2785,4.2871,4.2873,4.311,4.3063,4.3063,4.3075,4.3172,4.3183,4.3193,4.3059,4.3058,4.3057,0,0,4.108,4.1212,4.1352,4.1475,4.1664,4.177,4.1803,4.2007,4.2081,4.2265,4.2343,4.247,4.2727,4.2847,4.2941,4.3062,4.3113,4.3107,4.3123,4.3216,4.3225,4.3234,4.3275,4.3288,4.3119,4.3119,4.3118,0,4.106,4.1287,4.1414,4.1564,4.1668,4.1769,4.1907,4.202,4.2245,4.2313,4.2313,4.2636,4.276,4.2966,4.2996,4.3069,4.3108,4.3084,4.3214,4.3225,4.3235,4.3275,4.329,4.3116,4.3117,4.3117,4.3117,0,4.1251,4.1406,4.1494,4.1713,4.1827,4.197,4.2115,4.2214,4.2282,4.2386,4.2569,4.2721,4.2901,4.2956,4.3023,4.3171,4.3166,4.3188,4.3185,4.3242,4.3282,4.3299,4.3113,4.3114,4.3115,4.3115,0,0,4.1284,4.157,4.16,4.1699,4.1912,4.2032,4.2176,4.2356,4.2436,4.2587,4.2709,4.2922,4.2944,4.305,4.3131,4.3212,4.3294,4.3224,4.323,4.323,4.3462,4.3443,4.346,4.3329,4.3333,4.3335,4.3447,0,4.1392,4.166,4.1777,4.1989,4.2131,4.2226,4.2351,4.2492,4.2593,4.2724,4.2833,4.2981,4.3,4.3064,4.3149,4.3266,4.3342,4.326,4.344,4.3444,4.3393,4.3481,4.3463,4.3561,4.3463,4.3466,4.3468,0,4.1554,4.1708,4.1935,4.2128,4.2192,4.2303,4.2475,4.2601,4.276,4.2827,4.2944,4.3021,4.317,4.3156,4.3362,4.3303,4.3382,4.345,4.3457,4.3478,4.346,4.3502,4.3596,4.361,4.3495,4.3493,4.3491,0,4.1553,4.1816,4.1986,4.2067,4.2298,4.2372,4.2471,4.2629,4.2728,4.2876,4.294,4.3102,4.319,4.3311,4.3427,4.3407,4.362,4.3616,4.3676,4.3672,4.3717,4.3712,4.3822,4.3769,4.3769,4.3768,4.3768,0,4.166,4.1795,4.1988,4.2092,4.2243,4.2374,4.2519,4.2623,4.2762,4.2884,4.2975,4.3086,4.3233,4.3362,4.3452,4.3606,4.3645,4.37,4.3723,4.3692,4.3685,4.3746,4.3742,4.3772,4.3772,4.3771,4.377,0,4.1685,4.182,4.2011,4.2213,4.2266,4.2369,4.254,4.2641,4.2744,4.2897,4.294,4.3101,4.3257,4.3384,4.3587,4.3648,4.3808,4.3835,4.3755,4.3767,4.3818,4.3811,4.3971,4.3998,4.3926,4.3927,4.3927,0,4.1745,4.1851,4.2064,4.2154,4.2253,4.2396,4.2498,4.2628,4.2729,4.2917,4.2995,4.3157,4.3295,4.3538,4.367,4.3824,4.3854,4.3899,4.3877,4.3842,4.3852,4.3844,4.3854,4.3901,4.3901,4.3901,4.3901,0,4.1835,4.1896,4.2042,4.2209,4.2329,4.2466,4.2605,4.2672,4.2827,4.2934,4.3097,4.3203,4.341,4.3569,4.3737,4.3833,4.3891,4.3907,4.3928,4.3898,4.3847,4.3873,4.3759,4.3903,4.3902,4.3902,4.3902,4.3902,4.1879,4.1976,4.2141,4.2299,4.2417,4.2544,4.2649,4.2766,4.2904,4.3086,4.3153,4.3318,4.347,4.3702,4.3798,4.3925,4.3931,4.3963,4.3971,4.3976,4.3971,4.3827,4.3956,4.3956,4.3956,4.3956,4.3957,0,4.1973,4.2083,4.2227,4.2419,4.2541,4.2589,4.2744,4.2842,4.2987,4.3126,4.3259,4.3442,4.3595,4.3738,4.3897,4.3971,4.4001,4.4008,4.4004,4.4024,4.3958,4.3923,4.3981,4.3981,4.3981,4.3981,4.3981,4.3981,4.2036,4.2203,4.2282,4.2506,4.2614,4.278,4.2864,4.2979,4.3091,4.3293,4.3422,4.3515,4.3654,4.3823,4.3964,4.4001,4.4054,4.4054,4.4098,4.4033,4.4029,4.4025,4.3993,4.4065,4.4065,4.4154,4.4154,4.4155]}]]